Regional Weather Roundup
Issued by NWS

Home | Current Version | Previous Version | Graphics & Text | Print | Product List | Glossary On
Versions: 1 2 3 4 5 6 7 8 9 10 11 12 13 14 15 16 17 18 19 20 21 22 23 24 25 26 27 28 29 30 31 32 33 34 35 36 37 38 39 40 41 42 43 44 45 46 47 48 49 50
315
ASUS43 KDMX 311108
RWRIA

WEATHER ROUNDUP FOR IOWA
NATIONAL WEATHER SERVICE DES MOINES IA
600 AM CDT TUE MAY 31 2016

NOTE: "FAIR" INDICATES FEW OR NO CLOUDS BELOW 12,000 FEET WITH NO
SIGNIFICANT WEATHER AND/OR OBSTRUCTIONS TO VISIBILITY.

* - THESE STATIONS ARE NOT NWS STATIONS...THUS NOT UNDER NWS
QUALITY CONTROL.  THEY ALSO DO NOT REPORT WEATHER SUCH
AS PRECIPITATION OR FOG.

IAZ001>003-012>014-020>022-031>034-043>046-311200-
   NORTHWEST IOWA

CITY           SKY/WX    TMP DP  RH WIND       PRES   REMARKS
CARROLL *      MOCLDY    66  63  88 SW12      29.89R
CHEROKEE *     CLOUDY    61  61 100 S7        29.89R
DENISON *      MOCLDY    64  63  94 W7        29.89R
LE MARS *      LGT RAIN  63  61  94 SW6       29.91R
ORANGE CITY *  LGT RAIN  63  61  94 SW7       29.91R
SHELDON *      CLOUDY    61  61 100 S9        29.88R
SIOUX CITY     LGT RAIN  63  60  90 W6        29.91R
SPENCER        LGT RAIN  61  59  93 S3        29.88R
STORM LAKE *   CLOUDY    63  61  94 W10       29.90R
$$

IAZ055>058-069>071-079>083-090>094-311200-
   SOUTHWEST IOWA

CITY           SKY/WX    TMP DP  RH WIND       PRES   REMARKS
ATLANTIC *     CLEAR     64  61  88 S8        29.90R
AUDUBON *      CLEAR     64  61  88 S8        29.91R
CLARINDA *       N/A     64  61  88 MISG      29.93R
COUNCIL BLFS * CLOUDY    64  63  94 CALM      29.90R
CRESTON *      MOCLDY    63  61  94 S9        29.95R
HARLAN  *      MOCLDY    64  63  94 SW6       29.93R
LAMONI         MOCLDY    61  58  90 S8        29.96R
RED OAK *      MOCLDY    63  61  94 S7        29.90R
SHENANDOAH *   CLEAR     64  63  94 S12       29.91R FOG
$$

IAZ047>049-059>061-072>074-084-311200-
   CENTRAL IOWA

CITY           SKY/WX    TMP DP  RH WIND       PRES   REMARKS
AMES           CLOUDY    63  61  93 SE9       29.92R
ANKENY *       CLEAR     64  61  88 S7        29.94R
BOONE *        CLOUDY    64  61  88 S7        29.90S
CHARITON *     CLOUDY    63  59  88 SW7       29.95R
DES MOINES     CLOUDY    65  58  78 S10       29.93R
GRINNELL*      MOCLDY    61  57  88 SE6       29.95R
KNOXVILLE *    CLEAR     61  57  88 S7        29.93S
MARSHALLTOWN   CLOUDY    64  59  83 S10       29.92R
NEWTON *       MOCLDY    63  61  94 S7        29.94R
PELLA *        CLOUDY    61  59  94 S3        29.95S
PERRY *          N/A     66  63  88 S9        29.91R
$$

IAZ004>006-015-016-023>025-035-036-311200-
   NORTH CENTRAL IOWA

CITY           SKY/WX    TMP DP  RH WIND       PRES   REMARKS
ALGONA *       CLOUDY    64  63  94 S13G18    29.88S
CLARION *      MOCLDY    64  61  88 S12       29.89F
ESTHERVILLE    LGT RAIN  60  59  96 S8        29.87R
FORT DODGE *   MOCLDY    64  57  77 S9        29.89F
MASON CITY     CLOUDY    61  59  93 S10       29.91S
FOREST CITY *  CLOUDY    61  59  94 S12       29.89S
WEBSTER CITY * CLOUDY    63  63 100 S9        29.88S
IOWA FALLS *   CLOUDY    63  59  88 S9        29.93R
$$

IAZ007>011-017>019-026>030-037>042-050>054-066-311200-
   NORTHEAST IOWA

CITY           SKY/WX    TMP DP  RH WIND       PRES   REMARKS
CEDAR RAPIDS   CLEAR     60  60 100 S3        29.93S
CHARLES CITY * CLOUDY    63  61  94 SE13      29.91F
CLINTON *      MOCLDY    64  60  87 E7        29.96R
DECORAH *      CLEAR     63  61  94 SE10      29.92S
DUBUQUE        CLEAR     63  57  81 E8        29.96S
MONTICELLO *   CLEAR     63  59  88 SE6       29.94S
OELWEIN *      CLEAR     63  59  88 SE9       29.94R
WATERLOO       CLOUDY    62  58  86 SE7       29.91S
$$

IAZ064-065-067-068-078-311200-
   EAST CENTRAL IOWA

CITY           SKY/WX    TMP DP  RH WIND       PRES   REMARKS
DAVENPORT      CLOUDY    65  59  81 E7        29.95S
IOWA CITY      CLEAR     62  59  90 CALM      29.94F
MT. PLEASANT * PTCLDY    64  63  94 SW5       29.96R
MUSCATINE *    CLEAR     64  63  94 CALM      29.95R
QUAD CITIES    CLOUDY    66  62  87 E3        29.94S
$$

IAZ062-063-075>077-085>089-095>099-311200-
   SOUTHEAST IOWA

CITY           SKY/WX    TMP DP  RH WIND       PRES   REMARKS
BURLINGTON     PTCLDY    64  62  93 CALM      29.95S
FAIRFIELD *      N/A    N/A N/A N/A MISG        N/A
FORT MADISON * PTCLDY    63  61  94 S5        29.97R
KEOKUK *       PTCLDY    63  61  94 S5        29.96R
OSKALOOSA *      N/A     61  59  94 S5        29.96S
OTTUMWA        CLOUDY    59  58  96 S6        29.96R
WASHINGTON *   CLEAR     61 N/A N/A SW7       29.96R
$$

ABBREVIATIONS USED IN REMARKS
   TC - TEMPERATURES IN CELSIUS
  WCI - WIND CHILL INDEX
   HX - HEAT INDEX
  VSB - VISIBILITY
$$





USA.gov is the U.S. government's official web portal to all federal, state and local government web resources and services.